Location: Neuvy Saint Sepulchre
(46.5953°N, 1.8122°E)
Time: 16:15:12
(UTC+02:00)

ISS - Pass Details

Date: 13 May 2026
Orbit: 414 x 424 km, 51.6° (Epoch: 21 May)

Event Time Altitude Azimuth Distance (km) Brightness Sun altitude
Rises 23:18:23 0° 278° (W) 2,349 0.8 -16.5°
Reaches altitude 10° 23:20:36 10° 288° (WNW) 1,488 -0.2 -16.7°
Maximum altitude 23:23:41 33° 355° (N) 716 -2.1 -17.1°
Drops below altitude 10° 23:26:46 10° 63° (ENE) 1,492 -1.1 -17.4°
Enters shadow 23:27:25 - 67° (ENE) 1,738 -0.7 -17.4°
